Regional Weather Roundup
Issued by NWS

Home | Current Version | Previous Version | Text Only | Print | Product List | Glossary Off
Versions: 1 2 3 4 5 6 7 8 9 10 11 12 13 14 15 16 17 18 19 20 21 22 23 24 25 26 27 28 29 30 31 32 33 34 35 36 37 38 39 40 41 42 43 44 45 46 47 48 49 50

139
ASUS43 KMPX 130210
RWRMN
WEATHER ROUNDUP FOR MINNESOTA
NATIONAL WEATHER SERVICE TWIN CITIES/CHANHASSEN MN
800 PM CST FRI FEB 12 2016


NOTE: "FAIR" INDICATES FEW OR NO CLOUDS BELOW 12,000 FEET WITH NO
SIGNIFICANT WEATHER AND/OR OBSTRUCTIONS TO VISIBILITY. N/A MEANS
CURRENT SKY AND/OR WEATHER CONDITIONS ARE NOT AVAILABLE.

MNZ060>063-068>070-130300-
   Twin Cities Metro

CITY           SKY/WX    TMP DP  RH WIND       PRES   REMARKS
TWIN CITIES    CLEAR      5 -10  50 NW10      30.56R WCI -10
ST PAUL        CLEAR      5 -10  50 NW15      30.58R WCI -13
CRYSTAL        CLEAR      5 -10  50 NW13      30.56R WCI -12
BLAINE         CLEAR      7  -9  47 NW9       30.54R WCI  -7
LAKEVILLE      CLEAR      1  -9  60 NW10      30.55R WCI -14
EDEN PRAIRIE   CLEAR      5 -11  47 NW12      30.56R WCI -11
SOUTH ST PAUL  CLEAR      7 -11  43 NW12      30.56R WCI  -9
LAKE ELMO      FAIR       3 -11  51 CALM      30.55R
$$
MNZ001>005-007-008-013>017-022>024-027-028-130300-
   Northwest Minnesota

CITY           SKY/WX    TMP DP  RH WIND       PRES   REMARKS
BEMIDJI        CLOUDY   -11 -17  73 NW9       30.55S WCI -28
HALLOCK        CLOUDY    -9 -17  70 NW3       30.67R
ROSEAU         CLOUDY   -11 -18  70 W8        30.62R WCI -28
WARROAD        CLOUDY   -11 -20  64 W7        30.59R WCI -26
THIEF RVR FALL CLOUDY    -9 -27  41 NW10      30.63S WCI -28
CROOKSTON      CLOUDY    -8 -13  77 N7        30.68S WCI -22
FOSSTON          N/A    -15 -18  84 NW5       30.60F WCI -27
DETROIT LAKES  CLOUDY    -8 -13  77 NW8       30.60S WCI -23
MOORHEAD       CLOUDY    -4  -9  77 NW8       30.68S WCI -19
PARK RAPIDS    CLOUDY    -9 -17  68 NW9       30.55R WCI -26
MAHNOMEN       FAIR     -13 -18  78 W8        30.61S WCI -30
$$
MNZ006-009>011-018-025>026-130300-
   North Central Minnesota

CITY           SKY/WX    TMP DP  RH WIND       PRES   REMARKS
BAUDETTE       CLOUDY   -10 -21  58 NW13      30.54S WCI -30
FLAG ISLAND    CLOUDY   -11 -20  64 NW8       30.57F WCI -28
INTL FALLS     CLOUDY    -9 -19  61 NW12      30.52S WCI -28
WASKISH        CLOUDY   -11 -18  70 W7        30.56S WCI -26
LONGVILLE      CLEAR     -6 -17  59 W7        30.54S WCI -20
GRAND RAPIDS   CLEAR     -6 -18  54 NW12      30.49R WCI -24
CRANE LAKE     CLEAR     -9 -18  64 NW3       30.52R
ORR            CLEAR     -9 -20  59 NW7       30.45S WCI -24
COOK           CLEAR     -9 -18  64 W8        30.48S WCI -26
WALKER         FAIR      -8 -16  69 W7        30.55R WCI -23
$$
MNZ012-019>021-037-130300-
   Northeast Minnesota

CITY           SKY/WX    TMP DP  RH WIND       PRES   REMARKS
DULUTH         CLEAR     -3 -18  48 NW15G23   30.43R WCI -23
ELY            CLEAR     -9 -18  64 NW8       30.43S WCI -26
HIBBING        CLEAR     -7 -18  59 NW16      30.47R WCI -29
EVELETH        CLEAR     -6 -18  54 N8        30.47R WCI -21
DULUTH HARBOR  CLEAR      3 -15  43 NW17G23   30.53S WCI -17
TWO HARBORS    CLEAR      0 -15  50 NW7       30.43R WCI -13
SILVER BAY     CLEAR     -2 -17  50 W8G18     30.41S WCI -17
GRAND MARAIS     N/A     -3 -14  59 VRB3      30.43R
G MARAIS ARPRT CLEAR     -9 -20  59 W13G22    30.26S WCI -30
$$
MNZ029>031-032-039>041-046>048-054>057-064-130300-
   West Central Minnesota

CITY           SKY/WX    TMP DP  RH WIND       PRES   REMARKS
FERGUS FALLS   CLOUDY    -6 -11  77 N8        30.67S WCI -21
WHEATON        CLOUDY    -2  -9  71 W7        30.68S WCI -16
MORRIS         CLOUDY     0  -8  71 NW10      30.62S WCI -17
ALEXANDRIA     CLOUDY    -4 -15  59 NW14      30.56F WCI -24
ELBOW LAKE     FAIR      -3 -10  73 NW13      30.62S WCI -22
WADENA         CLOUDY    -8 -15  71 NW10      30.56F WCI -26
GLENWOOD       CLOUDY    -4 -11  71 NW10      30.57F WCI -21
APPLETON       CLOUDY     0  -8  71 NW10      30.65R WCI -17
BENSON         CLOUDY     0  -8  71 N6        30.61F WCI -12
ORTONVILLE     CLOUDY    -2 -11  65 NW9       30.64S WCI -18
MADISON        CLOUDY     0  -8  71 NW7       30.65R WCI -13
WILLMAR        FAIR       1  -6  71 NW14      30.60S WCI -17
$$
MNZ033>034-036-042>043-049>051-058-059-130300-
   Central Minnesota

CITY           SKY/WX    TMP DP  RH WIND       PRES   REMARKS
ST CLOUD       CLEAR      0 -11  59 NW13      30.57R WCI -18
SAUK CENTRE    FAIR      -3 -13  63 NW9       30.57S WCI -20
PAYNESVILLE    CLOUDY     0 -10  64 NW9       30.58S WCI -16
AITKIN         CLEAR      0 -18  42 W7        30.52R WCI -13
PINE RIVER     CLOUDY    -4 -15  59 NW5       30.57R WCI -15
BRAINERD       CLEAR     -2 -16  51 NW12      30.55R WCI -20
STAPLES        CLOUDY    -8 -15  71 NW10      30.56S WCI -26
LONG PRAIRIE   FAIR      -4 -13  65 NW10      30.56F WCI -21
LITTLE FALLS   CLEAR      0 -13  55 NW7       30.57S WCI -13
LITCHFIELD     CLEAR      1  -9  60 NW9       30.58S WCI -14
BUFFALO        CLEAR      3 -10  54 W7        30.58S WCI  -9
MAPLE LAKE     CLEAR      2  -8  61 W8        30.58R WCI -11
$$
MNZ037-044-045-052-053-130300-
   East Central Minnesota

CITY           SKY/WX    TMP DP  RH WIND       PRES   REMARKS
PRINCETON      CLEAR      3 -11  51 NW9       30.55R WCI -11
MORA           CLEAR      1 -15  46 NW8       30.55R WCI -12
CAMBRIDGE      CLEAR      1 -11  55 CALM      30.54R
RUSH CITY      MOCLDY     1 -14  48 NW8       30.55R WCI -12
MOOSE LAKE     CLEAR      0 -17  46 NW8       30.50R WCI -15
HINCKLEY       FAIR       1 -13  51 NW7       30.53R WCI -11
CLOQUET        CLEAR     -2 -18  46 NW12      30.46S WCI -20
MCGREGOR       CLEAR      0 -15  50 NW7       30.52R WCI -13
$$
MNZ071>073-080-081-089-090-097-098-130300-
   Southwest Minnesota

CITY           SKY/WX    TMP DP  RH WIND       PRES   REMARKS
MONTEVIDEO     CLOUDY     0  -8  71 N8        30.64S WCI -15
GRANITE FALLS  CLOUDY     2  -3  78 NW10      30.64S WCI -13
CANBY          CLOUDY     2  -5  72 W9        30.64F WCI -13
MARSHALL       CLOUDY     0  -7  72 NW12      30.62S WCI -17
REDWOOD FALLS  CLOUDY     2  -6  69 NW13      30.61R WCI -15
OLIVIA         CLOUDY     3  -6  66 NW12      30.60R WCI -13
PIPESTONE      CLOUDY     1  -9  60 N5        30.55S WCI  -8
WINDOM         CLOUDY     0  -6  78 NW17      30.56S WCI -21
WORTHINGTON    CLOUDY     0  -9  65 NW8       30.57R WCI -15
JACKSON        CLOUDY     1  -6  71 NW14      30.56S WCI -17
TRACY          CLOUDY     1  -4  77 NW10      30.60S WCI -15
SLAYTON        PTCLDY    -2  -7  79 NW9       30.57S WCI -17
$$
MNZ065>067-074>077-082>085-091>093-130300-
   South Central Minnesota

CITY           SKY/WX    TMP DP  RH WIND       PRES   REMARKS
MANKATO        CLOUDY     3  -8  60 NW10      30.56S WCI -12
NEW ULM        CLOUDY     1  -8  66 NW13      30.58S WCI -16
ST JAMES       CLOUDY     1  -2  85 NW14      30.59S WCI -17
FAIRMONT       CLOUDY     3  -6  66 NW14      30.55S WCI -15
GLENCOE        CLEAR      4  -6  63 NW12      30.57S WCI -12
FARIBAULT      CLEAR      3  -9  55 W9        30.54R WCI -11
OWATONNA       CLOUDY     1  -9  60 W10       30.54R WCI -14
WASECA         CLOUDY     3  -6  66 NW12      30.56S WCI -13
ALBERT LEA     CLOUDY     3  -6  66 NW9       30.52F WCI -11
$$
MNZ078>079-086>088-094>096-130300-
   Southeast Minnesota

CITY           SKY/WX    TMP DP  RH WIND       PRES   REMARKS
ROCHESTER      CLOUDY     1 -10  60 NW13      30.49R WCI -17
RED WING       CLEAR      7 -17  33 NW7       30.54R WCI  -5
STANTON        CLEAR      4 -10  51 NW8       30.54R WCI  -9
DODGE CENTER   CLOUDY     1  -9  60 NW9       30.49R WCI -14
WINONA         CLEAR      9  -8  47 NW6       30.54R WCI  -1
AUSTIN         CLOUDY     3  -6  66 NW12G17   30.51S WCI -13
PRESTON        CLOUDY    -1 -11  60 NW8       30.48R WCI -15
$$
ABBREVIATIONS USED IN REMARKS
   TC - TEMPERATURES IN CELSIUS
  WCI - WIND CHILL INDEX
   HX - HEAT INDEX
  VSB - VISIBILITY
$$




USA.gov is the U.S. government's official web portal to all federal, state and local government web resources and services.